Location: Black Swamp Observatory
(41.3920°N, 84.1250°W)
Time: 01:06:03
(UTC-04:00)

Amateur Radio Satellites - All Passes

Search period start: 28 August 2014 00:36
Search period end: 29 August 2014 00:36
Location: Black Swamp Observatory, 41.3920°N, 84.1250°W

Satellite Date Start Highest point End Downlink Frequencies (MHz)
Time Altitude Azimuth
MaSat-1 28 Aug 00:39:20 00:43:59 68° 247° (WSW) 00:48:00 437.345 MHz
Saudisat 1A 28 Aug 01:00:56 01:05:12 48° 308° (NW) 01:09:30 436.775 MHz
PCSat 28 Aug 01:44:00 01:46:08 12° 36° (NE) 01:48:16 145.825 MHz
KITSAT 1 28 Aug 01:55:55 02:03:54 60° 306° (NW) 02:11:55 435.175 FM
Oscar 19 28 Aug 01:59:56 02:02:50 15° 90° (E) 02:05:43 437.125 CW, 437.150 USB
ITAMSAT 1 28 Aug 02:26:40 02:27:44 11° 88° (E) 02:28:49 435.822 SSB
Oscar 16 28 Aug 02:32:53 02:37:32 32° 96° (E) 02:42:09 437.025 USB, Beacon 2401.1428
Uribyol 2 28 Aug 02:35:50 02:38:45 15° 91° (E) 02:41:38 436.500 FM
AO-Echo 28 Aug 02:51:41 02:55:11 20° 93° (E) 02:58:40 ?
AO-27 28 Aug 02:52:27 02:56:19 21° 93° (E) 03:00:10 436.795 MHz FM
Sapphire 28 Aug 02:55:44 03:00:39 34° 51° (NE) 03:05:33 437.095 MHz 1200 baud AX-25 AFSK
Gurwin Techsat 1B 28 Aug 03:04:26 03:06:12 12° 88° (E) 03:07:58 435.225 FM
PCSat 28 Aug 03:25:20 03:30:43 60° 57° (ENE) 03:36:04 145.825 MHz
Oscar 19 28 Aug 03:37:28 03:42:38 66° 287° (WNW) 03:47:46 437.125 CW, 437.150 USB
JAS-1B 28 Aug 03:47:19 03:54:11 57° 99° (E) 04:00:03 435.800 - 435.900 CW/SSB
KITSAT 1 28 Aug 03:55:48 04:01:10 19° 331° (NNW) 04:06:34 435.175 FM
TMSAT-1 28 Aug 03:55:49 04:00:18 27° 95° (E) 04:04:44 436.925 FM
OPAL 28 Aug 03:56:21 04:00:00 21° 61° (ENE) 04:03:42 ?
ITAMSAT 1 28 Aug 04:02:41 04:07:53 87° 285° (WNW) 04:13:05 435.822 SSB
Oscar 16 28 Aug 04:12:16 04:16:49 32° 293° (WNW) 04:21:22 437.025 USB, Beacon 2401.1428
Uribyol 2 28 Aug 04:13:31 04:18:40 66° 287° (WNW) 04:23:48 436.500 FM
AO-Echo 28 Aug 04:29:45 04:34:08 40° 290° (WNW) 04:38:30 ?
SO-50 28 Aug 04:30:51 04:34:16 22° 111° (ESE) 04:37:45 436.795 FM
AO-27 28 Aug 04:31:06 04:36:04 48° 290° (WNW) 04:41:01 436.795 MHz FM
Sapphire 28 Aug 04:39:08 04:44:05 37° 249° (WSW) 04:49:00 437.095 MHz 1200 baud AX-25 AFSK
Gurwin Techsat 1B 28 Aug 04:41:28 04:46:49 84° 285° (WNW) 04:52:07 435.225 FM
AO-7 28 Aug 04:54:50 05:01:33 27° 94° (E) 05:08:12 29.400 - 29.500 MHz
PCSat 28 Aug 05:09:55 05:13:37 19° 255° (WSW) 05:17:19 145.825 MHz
Uosat F 28 Aug 05:17:25 05:21:47 29° 96° (E) 05:26:07 435.120 FM
OPAL 28 Aug 05:33:35 05:38:29 52° 258° (WSW) 05:43:29 ?
TMSAT-1 28 Aug 05:35:25 05:40:16 38° 291° (WNW) 05:45:07 436.925 FM
JAS-1B 28 Aug 05:38:44 05:44:12 25° 302° (WNW) 05:49:04 435.800 - 435.900 CW/SSB
ITAMSAT 1 28 Aug 05:44:45 05:46:35 12° 302° (WNW) 05:48:26 435.822 SSB
KITSAT 1 28 Aug 05:58:50 06:00:41 11° 2° (N) 06:02:31 435.175 FM
SO-50 28 Aug 06:10:17 06:14:33 42° 309° (NW) 06:18:55 436.795 FM
Gurwin Techsat 1B 28 Aug 06:24:07 06:25:56 12° 302° (WNW) 06:27:45 435.225 FM
UOSAT-12 28 Aug 06:46:09 06:50:26 40° 116° (ESE) 06:54:49 437.025 FM, 437.400 FM
Hamsat 28 Aug 06:46:31 06:49:59 23° 94° (E) 06:53:25 145.90 MHz
AO-7 28 Aug 06:46:41 06:54:54 68° 293° (WNW) 07:03:04 29.400 - 29.500 MHz
Uosat F 28 Aug 06:56:07 07:00:32 32° 293° (WNW) 07:04:56 435.120 FM
STRAND 1 28 Aug 07:12:27 07:17:25 56° 72° (ENE) 07:22:25 ?
JAS-2 28 Aug 07:33:24 07:38:34 62° 102° (ESE) 07:44:03 435.800 - 435.900 CW/SSB, 435.910 FM
Saudisat 1A 28 Aug 07:48:45 07:51:55 19° 42° (NE) 07:55:03 436.775 MHz
KITSAT 1 28 Aug 07:54:13 08:00:01 21° 32° (NNE) 08:05:47 435.175 FM
SO-67 28 Aug 08:05:48 08:08:33 22° 95° (E) 08:11:17 435.3500 MHz FM
RS-15 28 Aug 08:12:27 08:22:22 40° 108° (ESE) 08:32:07 29.354 - 29.394 USB, Beacon 29.352 USB
Hamsat 28 Aug 08:22:06 08:25:58 31° 290° (WNW) 08:29:47 145.90 MHz
UOSAT-12 28 Aug 08:26:45 08:30:42 27° 314° (NW) 08:34:44 437.025 FM, 437.400 FM
AO-7 28 Aug 08:41:40 08:46:10 16° 313° (NW) 08:50:40 29.400 - 29.500 MHz
STRAND 1 28 Aug 08:53:39 08:56:57 17° 268° (W) 09:00:17 ?
JAS-2 28 Aug 09:20:01 09:23:16 17° 298° (WNW) 09:26:35 435.800 - 435.900 CW/SSB, 435.910 FM
Saudisat 1A 28 Aug 09:27:31 09:31:52 59° 241° (WSW) 09:36:11 436.775 MHz
SO-67 28 Aug 09:38:52 09:41:30 20° 291° (WNW) 09:44:06 435.3500 MHz FM
HO-68 28 Aug 09:40:29 09:46:14 26° 94° (E) 09:51:57 435.675 MHz FM
KITSAT 1 28 Aug 09:48:57 09:57:02 69° 56° (NE) 10:05:03 435.175 FM
UKube-1 28 Aug 09:57:14 09:59:11 13° 91° (E) 10:01:07 145.840 MHz, 145.915 MHz
Oscar 11 28 Aug 10:07:25 10:08:08 10° 89° (E) 10:08:51 145.825 FM, Beacon 2401.500 USB
RS-15 28 Aug 10:23:19 10:34:13 61° 310° (NW) 10:45:02 29.354 - 29.394 USB, Beacon 29.352 USB
HO-68 28 Aug 11:27:19 11:34:20 61° 291° (WNW) 11:41:20 435.675 MHz FM
UKube-1 28 Aug 11:31:28 11:35:44 57° 287° (WNW) 11:39:59 145.840 MHz, 145.915 MHz
Oscar 11 28 Aug 11:40:25 11:44:47 70° 285° (WNW) 11:49:07 145.825 FM, Beacon 2401.500 USB
KITSAT 1 28 Aug 11:45:22 11:51:43 27° 255° (WSW) 11:58:05 435.175 FM
FUNcube-1 28 Aug 11:58:22 12:02:53 72° 102° (ESE) 12:07:27 145.950 - 145.970 MHz USB
AO-40 28 Aug 11:58:58 03:26:34 40° 183° (S) 12:20:56 Beacon 2401.320
ISS 28 Aug 12:12:26 12:15:37 45° 139° (SE) 12:18:49 145.800 FM
RS-15 28 Aug 12:41:02 12:49:27 24° 340° (NNW) 12:57:57 29.354 - 29.394 USB, Beacon 29.352 USB
JAS-1B 28 Aug 12:44:37 12:48:59 14° 50° (NE) 12:53:08 435.800 - 435.900 CW/SSB
SO-50 28 Aug 13:01:27 13:05:25 25° 45° (NE) 13:09:25 436.795 FM
Oscar 19 28 Aug 13:16:36 13:20:34 23° 64° (ENE) 13:24:34 437.125 CW, 437.150 USB
HO-68 28 Aug 13:18:05 13:20:37 12° 311° (NW) 13:23:09 435.675 MHz FM
FUNcube-1 28 Aug 13:36:52 13:38:42 12° 298° (WNW) 13:40:32 145.950 - 145.970 MHz USB
ITAMSAT 1 28 Aug 13:43:32 13:47:02 19° 62° (ENE) 13:50:31 435.822 SSB
ISS 28 Aug 13:49:32 13:52:28 28° 336° (NNW) 13:55:24 145.800 FM
Oscar 16 28 Aug 13:49:51 13:54:45 47° 70° (ENE) 13:59:42 437.025 USB, Beacon 2401.1428
Uribyol 2 28 Aug 13:53:30 13:57:33 24° 65° (ENE) 14:01:38 436.500 FM
AO-Echo 28 Aug 14:04:26 14:08:46 30° 68° (ENE) 14:13:01 ?
AO-27 28 Aug 14:10:32 14:15:07 33° 67° (ENE) 14:19:41 436.795 MHz FM
Gurwin Techsat 1B 28 Aug 14:24:42 14:28:31 21° 63° (ENE) 14:32:20 435.225 FM
MaSat-1 28 Aug 14:26:45 14:31:26 52° 110° (ESE) 14:36:27 437.345 MHz
JAS-1B 28 Aug 14:28:19 14:37:50 58° 69° (ENE) 14:46:30 435.800 - 435.900 CW/SSB
SO-50 28 Aug 14:41:36 14:46:11 47° 243° (WSW) 14:50:49 436.795 FM
Oscar 19 28 Aug 14:54:41 14:59:36 45° 261° (W) 15:04:35 437.125 CW, 437.150 USB
RS-15 28 Aug 14:58:56 15:07:09 23° 17° (NNE) 15:15:29 29.354 - 29.394 USB, Beacon 29.352 USB
UOSAT-12 28 Aug 15:15:33 15:19:58 37° 49° (NE) 15:24:19 437.025 FM, 437.400 FM
PANSAT 28 Aug 15:15:38 15:17:04 12° 177° (S) 15:18:31 not established
TMSAT-1 28 Aug 15:16:32 15:21:30 43° 70° (ENE) 15:26:28 436.925 FM
ITAMSAT 1 28 Aug 15:20:58 15:26:03 58° 259° (W) 15:31:10 435.822 SSB
ISS 28 Aug 15:28:07 15:30:02 14° 356° (N) 15:31:57 145.800 FM
Oscar 16 28 Aug 15:30:30 15:34:20 21° 267° (W) 15:38:12 437.025 USB, Beacon 2401.1428
Uribyol 2 28 Aug 15:31:53 15:36:46 43° 261° (W) 15:41:41 436.500 FM
AO-Echo 28 Aug 15:42:56 15:47:28 32° 263° (W) 15:51:53 ?
AO-27 28 Aug 15:50:02 15:54:35 31° 264° (W) 15:59:09 436.795 MHz FM
AO-7 28 Aug 15:53:47 16:01:16 39° 60° (ENE) 16:08:44 29.400 - 29.500 MHz
Gurwin Techsat 1B 28 Aug 16:02:53 16:08:04 54° 260° (W) 16:13:16 435.225 FM
MaSat-1 28 Aug 16:04:52 16:08:50 23° 309° (NW) 16:12:58 437.345 MHz
JAS-1B 28 Aug 16:19:28 16:28:25 39° 264° (W) 16:36:47 435.800 - 435.900 CW/SSB
Uosat F 28 Aug 16:30:40 16:35:22 42° 70° (ENE) 16:40:04 435.120 FM
UOSAT-12 28 Aug 16:56:00 16:59:58 27° 247° (WSW) 17:03:53 437.025 FM, 437.400 FM
TMSAT-1 28 Aug 16:57:21 17:01:34 24° 266° (W) 17:05:49 436.925 FM
ISS 28 Aug 17:05:11 17:07:44 20° 17° (NNE) 17:10:17 145.800 FM
RS-15 28 Aug 17:12:02 17:22:49 54° 47° (NE) 17:33:57 29.354 - 29.394 USB, Beacon 29.352 USB
Oscar 10/S400 28 Aug 17:35:46 17:51:30 28° 145° (SE) 18:11:20 145.825 - 145.975 CW/USB, Beacon 145.810 USB
Sapphire 28 Aug 17:38:11 17:42:43 28° 109° (ESE) 17:47:17 437.095 MHz 1200 baud AX-25 AFSK
Hamsat 28 Aug 17:40:36 17:43:29 18° 65° (ENE) 17:46:23 145.90 MHz
OPAL 28 Aug 17:43:18 17:48:13 40° 100° (E) 17:53:06 ?
AO-7 28 Aug 17:45:47 17:53:49 51° 259° (WSW) 18:01:53 29.400 - 29.500 MHz
JAS-2 28 Aug 17:46:23 17:51:29 28° 67° (ENE) 17:56:10 435.800 - 435.900 CW/SSB, 435.910 FM
PCSat 28 Aug 18:07:02 18:12:17 55° 114° (ESE) 18:17:34 145.825 MHz
Uosat F 28 Aug 18:10:24 18:14:18 23° 266° (W) 18:18:13 435.120 FM
ISS 28 Aug 18:41:31 18:44:52 84° 35° (NE) 18:48:12 145.800 FM
Hamsat 28 Aug 19:15:01 19:19:06 43° 262° (W) 19:23:15 145.90 MHz
Sapphire 28 Aug 19:20:50 19:25:56 42° 306° (NW) 19:31:05 437.095 MHz 1200 baud AX-25 AFSK
OPAL 28 Aug 19:22:34 19:26:53 27° 297° (WNW) 19:31:10 ?
STRAND 1 28 Aug 19:23:59 19:27:30 19° 92° (E) 19:31:01 ?
RS-15 28 Aug 19:24:41 19:35:05 48° 249° (WSW) 19:45:54 29.354 - 29.394 USB, Beacon 29.352 USB
JAS-2 28 Aug 19:30:24 19:36:25 44° 261° (W) 19:41:51 435.800 - 435.900 CW/SSB, 435.910 FM
PCSat 28 Aug 19:51:38 19:56:01 25° 313° (NW) 20:00:26 145.825 MHz
HO-68 28 Aug 20:10:25 20:15:26 21° 56° (NE) 20:20:28 435.675 MHz FM
SO-67 28 Aug 20:11:00 20:14:25 61° 260° (W) 20:17:52 435.3500 MHz FM
ISS 28 Aug 20:20:05 20:21:08 11° 231° (SW) 20:22:11 145.800 FM
UKube-1 28 Aug 20:53:34 20:55:27 13° 62° (ENE) 20:57:20 145.840 MHz, 145.915 MHz
STRAND 1 28 Aug 21:02:03 21:06:59 52° 289° (WNW) 21:11:55 ?
HO-68 28 Aug 21:55:12 22:02:20 80° 255° (WSW) 22:09:32 435.675 MHz FM
UKube-1 28 Aug 22:26:48 22:31:06 65° 258° (WSW) 22:35:26 145.840 MHz, 145.915 MHz
Oscar 11 28 Aug 22:35:12 22:39:32 89° 259° (W) 22:43:55 145.825 FM, Beacon 2401.500 USB
MaSat-1 28 Aug 22:45:46 22:48:25 15° 45° (NE) 22:50:53 437.345 MHz
FUNcube-1 28 Aug 22:55:03 22:59:07 56° 74° (ENE) 23:03:16 145.950 - 145.970 MHz USB
Saudisat 1A 28 Aug 23:34:08 23:38:07 34° 115° (ESE) 23:42:07 436.775 MHz
HO-68 28 Aug 23:47:59 23:51:04 13° 272° (W) 23:54:10 435.675 MHz FM
KITSAT 1 29 Aug 00:17:09 00:24:46 47° 111° (ESE) 00:32:24 435.175 FM
MaSat-1 29 Aug 00:21:32 00:26:11 74° 247° (WSW) 00:30:10 437.345 MHz
